Regional Weather Roundup
Issued by NWS

Home | Current Version | Previous Version | Text Only | Print | Product List | Glossary Off
Versions: 1 2 3 4 5 6 7 8 9 10 11 12 13 14 15 16 17 18 19 20 21 22 23 24 25 26 27 28 29 30 31 32 33 34 35 36 37 38 39 40 41 42 43 44 45 46 47 48 49 50

188
ASUS44 KMEG 202200
RWRTN
TENNESSEE HOURLY STATE WEATHER ROUNDUP
NATIONAL WEATHER SERVICE MEMPHIS TN
400 PM CST MON FEB 20 2017

TNZ002-004-019-021-049-052-054-088>092-202300-
WEST TENNESSEE

CITY           SKY/WX    TMP DP  RH WIND       PRES   REMARKS
MEMPHIS INTL   PTSUNNY   78  50  37 S12       29.98F
NWS MEMPHIS      N/A     79 N/A N/A MISG        N/A
JACKSON        CLOUDY    76  52  43 S6        30.01F
UNION CITY     SUNNY     73  46  38 CALM      30.00S
PARIS          SUNNY     72  52  49 SE7       30.04S
$$

TNZ008-025-027-028-033-062-065-066-202300-
NORTH MIDDLE TENNESSEE

CITY           SKY/WX    TMP DP  RH WIND       PRES   REMARKS
NASHVILLE      CLOUDY    75  42  30 S8        30.07S
CLARKSVILLE    CLOUDY    70  51  51 SE5       30.04F
SMYRNA         CLOUDY    75  45  34 SE6       30.07F
CROSSVILLE     CLOUDY    66  42  41 SE5       30.13S
$$

TNZ061-075-076-078-094-096-097-202300-
SOUTH MIDDLE TENNESSEE

CITY           SKY/WX    TMP DP  RH WIND       PRES   REMARKS
TULLAHOMA      SUNNY     72  37  28 S3        30.10S
MCMINNVILLE    SUNNY     73  45  35 CALM      30.09S
COLUMBIA       SUNNY     73  50  43 SE7       30.04F
SHELBYVILLE    SUNNY     75  46  35 S6        30.08F
$$

TNZ017-018-042-046-047-202300-
NORTHEAST TENNESSEE

CITY           SKY/WX    TMP DP  RH WIND       PRES   REMARKS
TRI CITIES     CLOUDY    68  37  32 CALM      30.14S
$$

TNZ012-013-036-069-073-074-202300-
CENTRAL EAST TENNESSEE

CITY           SKY/WX    TMP DP  RH WIND       PRES   REMARKS
KNOXVILLE      CLOUDY    69  42  37 N3        30.11F
OAK RIDGE      MOSUNNY   69  42  37 CALM      30.12F
GATLINBURG     SUNNY     66  39  37 CALM      30.11F
$$

TNZ083-085-099-202300-
SOUTHEAST TENNESSEE

CITY           SKY/WX    TMP DP  RH WIND       PRES   REMARKS
CHATTANOOGA    PTSUNNY   71  47  42 CALM      30.11F
$$

SKY/WX REPORTED AS FAIR MEANS FEW OR NO CLOUDS BELOW
12 THOUSAND FEET.





USA.gov is the U.S. government's official web portal to all federal, state and local government web resources and services.